Weather History for Oxford, NC

Change the Weather History Date:

Tuesday, March 4, 2014

  Actual Average (KTDF) Record (KTDF)
Temperature  
Mean Temperature 24 °F -  
Max Temperature 34 °F 59 °F 86 °F (1976)
Min Temperature 13 °F 35 °F 9 °F (1980)
Degree Days  
Heating Degree Days 42    
Moisture  
Dew Point 8 °F    
Average Humidity 52    
Maximum Humidity 73    
Minimum Humidity 34    
Precipitation  
Precipitation 0.02 in - - ()
Sea Level Pressure  
Sea Level Pressure 30.28 in    
Wind  
Wind Speed 2 mph (NNE)    
Max Wind Speed 9 mph    
Max Gust Speed 18 mph    
Visibility 10 miles    
Events      
Averages and records for this station are not official NWS values.
T = Trace of Precipitation, MM = Missing Value Source: NWS Daily Summary

Daily Weather History Graph

Daily Weather History Graph

Search for Another Location

Airport:

Trip Planner

Search our weather history database for the weather conditions in past years. The results will help you decide how hot, cold, wet, or windy it might be!

Date:

Astronomy

Mar. 04, 2014 Rise Set
Actual Time 6:40 AM EST 6:11 PM EST
Civil Twilight 6:14 AM EST 6:37 PM EST
Nautical Twilight 5:44 AM EST 7:07 PM EST
Astronomical Twilight 5:15 AM EST 7:37 PM EST
Moon 8:32 AM EST (3/4) 10:09 PM EST (3/4)
Length of Visible Light 12h 22m
Length of Day
11h 31m
Waxing Crescent, 14% of the Moon is Illuminated
Mar 4
Waxing Crescent
Mar 8
First Quarter
Mar 16
Full
Mar 23
Last Quarter
Mar 30
New

Hourly Weather History & Observations

Time (EST) Temp. Windchill Dew Point Humidity Pressure Visibility Wind Dir Wind Speed Gust Speed Precip Events Conditions
12:15 AM 17.6 °F - 7.7 °F 65% 30.28 in 10.0 mi Calm Calm - N/A   Clear
12:35 AM 17.4 °F - 7.0 °F 64% 30.29 in 10.0 mi Calm Calm - N/A   Clear
12:55 AM 17.1 °F - 6.6 °F 64% 30.30 in 10.0 mi Calm Calm - N/A   Clear
1:20 AM 16.5 °F - 6.3 °F 64% 30.29 in 10.0 mi Calm Calm - N/A   Clear
1:35 AM 15.8 °F - 6.3 °F 66% 30.30 in 10.0 mi Calm Calm - N/A   Clear
1:55 AM 15.6 °F - 6.3 °F 67% 30.29 in 10.0 mi Calm Calm - N/A   Clear
2:15 AM 14.9 °F - 7.0 °F 71% 30.30 in 10.0 mi Calm Calm - N/A   Clear
2:35 AM 14.7 °F - 6.8 °F 71% 30.30 in 10.0 mi Calm Calm - N/A   Clear
2:55 AM 14.4 °F - 6.8 °F 72% 30.30 in 10.0 mi Calm Calm - N/A   Clear
3:15 AM 14.0 °F - 6.6 °F 72% 30.29 in 10.0 mi Calm Calm - N/A   Clear
3:35 AM 14.0 °F - 6.1 °F 71% 30.29 in 10.0 mi Calm Calm - N/A   Clear
3:55 AM 14.0 °F - 5.9 °F 70% 30.27 in 10.0 mi Calm Calm - N/A   Clear
4:15 AM 14.0 °F - 5.7 °F 70% 30.28 in 10.0 mi Calm Calm - N/A   Clear
4:35 AM 14.0 °F - 5.4 °F 69% 30.29 in 10.0 mi Calm Calm - N/A   Clear
4:55 AM 13.6 °F - 5.9 °F 71% 30.30 in 10.0 mi Calm Calm - N/A   Clear
5:15 AM 13.1 °F - 5.9 °F 73% 30.31 in 10.0 mi Calm Calm - N/A   Clear
5:35 AM 13.6 °F - 5.9 °F 71% 30.31 in 10.0 mi Calm Calm - N/A   Clear
5:55 AM 13.6 °F - 5.4 °F 70% 30.31 in 10.0 mi Calm Calm - N/A   Clear
6:15 AM 13.6 °F - 5.4 °F 70% 30.32 in 10.0 mi Calm Calm - N/A   Clear
6:35 AM 13.6 °F - 5.7 °F 71% 30.32 in 10.0 mi Calm Calm - N/A   Clear
6:55 AM 13.6 °F - 5.9 °F 71% 30.33 in 10.0 mi Calm Calm - N/A   Clear
7:15 AM 14.4 °F - 5.9 °F 69% 30.33 in 10.0 mi Calm Calm - N/A   Clear
7:35 AM 14.9 °F - 6.3 °F 69% 30.33 in 10.0 mi Calm Calm - N/A   Clear
7:55 AM 16.3 °F - 6.3 °F 65% 30.35 in 10.0 mi Calm Calm - N/A   Clear
8:15 AM 17.8 °F - 6.6 °F 62% 30.36 in 10.0 mi Calm Calm - N/A   Clear
8:35 AM 19.0 °F - 7.5 °F 61% 30.36 in 10.0 mi Calm Calm - N/A   Clear
8:55 AM 20.7 °F - 8.4 °F 59% 30.37 in 10.0 mi Calm Calm - N/A   Clear
9:15 AM 22.3 °F - 8.6 °F 56% 30.37 in 10.0 mi Calm Calm - N/A   Clear
9:35 AM 23.7 °F - 8.6 °F 53% 30.36 in 10.0 mi Calm Calm - N/A   Clear
9:55 AM 23.7 °F - 8.2 °F 52% 30.34 in 10.0 mi Calm Calm - N/A   Clear
10:15 AM 24.4 °F 15.6 °F 7.7 °F 49% 30.35 in 10.0 mi North 8.1 mph 18.4 mph N/A   Clear
10:35 AM 24.6 °F 15.8 °F 7.5 °F 48% 30.34 in 10.0 mi North 8.1 mph - N/A   Clear
10:55 AM 26.1 °F 16.8 °F 8.4 °F 47% 30.33 in 10.0 mi North 9.2 mph - N/A   Clear
11:15 AM 26.8 °F 20.2 °F 9.0 °F 47% 30.33 in 10.0 mi North 5.8 mph - N/A   Clear
11:35 AM 27.7 °F 20.4 °F 8.8 °F 45% 30.32 in 10.0 mi North 6.9 mph - N/A   Clear
11:55 AM 28.0 °F 24.2 °F 7.5 °F 42% 30.32 in 10.0 mi NNE 3.5 mph - N/A   Clear
12:15 PM 29.1 °F 21.3 °F 5.4 °F 37% 30.31 in 10.0 mi NE 8.1 mph - N/A   Clear
12:35 PM 30.0 °F 21.7 °F 7.3 °F 38% 30.30 in 10.0 mi NE 9.2 mph - N/A   Clear
12:55 PM 30.6 °F 24.7 °F 7.3 °F 38% 30.29 in 10.0 mi North 5.8 mph - N/A   Clear
1:15 PM 31.1 °F 25.4 °F 7.7 °F 37% 30.28 in 10.0 mi NNE 5.8 mph - N/A   Clear
1:35 PM 31.3 °F 24.7 °F 8.2 °F 38% 30.27 in 10.0 mi NNE 6.9 mph - N/A   Clear
1:55 PM 32.0 °F 25.6 °F 9.9 °F 40% 30.26 in 10.0 mi NNW 6.9 mph - N/A   Clear
2:15 PM 32.0 °F 26.4 °F 8.6 °F 38% 30.26 in 10.0 mi North 5.8 mph - N/A   Clear
2:35 PM 32.4 °F 25.3 °F 10.4 °F 40% 30.25 in 10.0 mi North 8.1 mph - N/A   Clear
2:55 PM 32.9 °F 25.9 °F 7.9 °F 35% 30.25 in 10.0 mi North 8.1 mph - N/A   Clear
3:15 PM 33.6 °F 26.8 °F 9.3 °F 36% 30.25 in 10.0 mi North 8.1 mph - N/A   Clear
3:35 PM 32.7 °F 25.0 °F 7.2 °F 34% 30.24 in 10.0 mi North 9.2 mph - N/A   Clear
3:55 PM 33.4 °F 28.1 °F 7.7 °F 34% 30.24 in 10.0 mi NNE 5.8 mph - N/A   Clear
4:15 PM 33.4 °F 29.1 °F 7.7 °F 34% 30.23 in 10.0 mi North 4.6 mph - N/A   Clear
4:35 PM 34.0 °F 28.8 °F 9.1 °F 36% 30.22 in 10.0 mi NE 5.8 mph - N/A   Clear
4:55 PM 32.5 °F 26.2 °F 7.3 °F 35% 30.22 in 10.0 mi NE 6.9 mph - N/A   Clear
5:15 PM 32.0 °F 26.4 °F 7.5 °F 36% 30.22 in 10.0 mi ENE 5.8 mph - N/A   Clear
5:35 PM 32.0 °F 27.5 °F 9.3 °F 39% 30.22 in 10.0 mi NE 4.6 mph - N/A   Scattered Clouds
5:55 PM 31.8 °F 27.3 °F 10.6 °F 41% 30.23 in 10.0 mi NE 4.6 mph - N/A   Mostly Cloudy
6:15 PM 31.8 °F - 10.0 °F 40% 30.24 in 10.0 mi Calm Calm - N/A   Overcast
6:35 PM 31.8 °F 27.3 °F 9.7 °F 40% 30.24 in 10.0 mi North 4.6 mph - N/A   Overcast
7:00 PM 31.8 °F 28.5 °F 10.9 °F 42% 30.24 in 10.0 mi NNE 3.5 mph - N/A   Overcast
7:15 PM 32.0 °F - 11.5 °F 43% 30.26 in 10.0 mi Calm Calm - N/A   Overcast
7:35 PM 32.0 °F - 11.3 °F 42% 30.25 in 10.0 mi Calm Calm - N/A   Overcast
7:55 PM 31.6 °F 28.3 °F 11.5 °F 43% 30.25 in 10.0 mi North 3.5 mph - N/A   Overcast
8:15 PM 31.6 °F 28.3 °F 11.8 °F 44% 30.25 in 10.0 mi North 3.5 mph - N/A   Overcast
8:35 PM 31.6 °F - 12.2 °F 45% 30.25 in 10.0 mi Calm Calm - N/A   Overcast
8:55 PM 31.6 °F 28.3 °F 12.0 °F 44% 30.24 in 10.0 mi North 3.5 mph - N/A   Overcast
9:15 PM 31.5 °F - 12.6 °F 46% 30.23 in 10.0 mi Calm Calm - N/A   Overcast
9:35 PM 31.5 °F 28.1 °F 11.1 °F 43% 30.23 in 10.0 mi North 3.5 mph - N/A   Overcast
9:55 PM 31.3 °F 27.9 °F 12.2 °F 45% 30.22 in 10.0 mi North 3.5 mph - N/A   Overcast
10:15 PM 31.1 °F 27.7 °F 11.7 °F 45% 30.22 in 10.0 mi NNE 3.5 mph - N/A   Overcast
10:35 PM 31.3 °F - 12.0 °F 45% 30.22 in 10.0 mi Calm Calm - N/A   Overcast
10:55 PM 31.1 °F 26.4 °F 12.2 °F 46% 30.22 in 10.0 mi North 4.6 mph - N/A   Overcast
11:15 PM 31.1 °F 26.4 °F 12.7 °F 47% 30.21 in 10.0 mi North 4.6 mph - N/A   Overcast
11:40 PM 30.7 °F 26.0 °F 13.1 °F 48% 30.21 in 10.0 mi North 4.6 mph - N/A   Overcast
11:55 PM 30.9 °F 26.2 °F 12.9 °F 47% 30.20 in 10.0 mi North 4.6 mph - N/A   Overcast